EUTELSAT KA-SAT 9A

Last updated on Mon Nov 03 2025 00:02:56 GMT+0000 (Coordinated Universal Time)

1 37258U 10069A 25306.32583419 .00000075 00000+0 00000+0 0 9992 2 37258 0.0592 318.2658 0002343 227.0683 342.8921 1.00277378 41735
UTC large
Height (km)
Speed (km/s)
/
Latitude / Longitude
Inclination (degrees)
Orbital Period (minutes)
Azimuth
Elevation
Range (km)
Doppler Factor

Next 0 passes for location: London (51.5072 / 0.1276)

Sorry there are no passes over London.